Regional Weather Roundup
Issued by NWS Mobile, AL

Home | Current Version | Previous Version | Text Only | Print | Product List | Glossary On
Versions: 1 2 3 4 5 6 7 8 9 10 11 12 13 14 15 16 17 18 19 20 21 22 23 24 25 26 27 28 29 30 31 32 33 34 35 36 37 38 39 40 41 42 43 44 45 46 47 48 49 50
000
ASUS44 KMOB 062012
RWRMOB
REGIONAL WEATHER ROUNDUP
NATIONAL WEATHER SERVICE MOBILE AL
200 PM CST FRI MAR 06 2015

NOTE: "FAIR" INDICATES FEW OR NO CLOUDS BELOW 12,000 FEET WITH NO
      SIGNIFICANT WEATHER AND/OR OBSTRUCTIONS TO VISIBILITY.

  * THESE STATIONS ARE PART OF THE UNIVERSITY OF SOUTH ALABAMA
    MESONET AND ARE NOT UNDER NWS OR FAA QUALITY CONTROL.

ALZ061>064-062100-
COASTAL ALABAMA

CITY           SKY/WX    TMP DP  RH WIND       PRES   REMARKS
MOBILE REG APT PTSUNNY   52  11  19 N16G23    30.40
BROOKLEY FIELD PTSUNNY   52  20  28 N18       30.41F
USA CAMPUS*      N/A     52  14  22 NE5       30.40F
DOG RIVER*     NOT AVBL


CITY           SKY/WX    TMP DP  RH WIND       PRES   REMARKS
MOUNT VERNON*    N/A     50  12  22 NE6       30.43F
SARALAND*      NOT AVBL
BAY MINETTE*   NOT AVBL
LOXLEY*          N/A     50  21  32 VRB15     30.38F
ROBERTSDALE*     N/A     52  18  25 N2        30.37F
FAIRHOPE*        N/A     50  21  32 N12       30.37F
ELBERTA*         N/A     52  18  25 N10       30.36F
FOLEY*         NOT AVBL
GRAND BAY*       N/A     52  10  19 N17       30.38F
DAUPHIN ISLND* NOT AVBL
BON SCOUR NWR* NOT AVBL
GULF SHORES    PTSUNNY   52  21  29 N8        30.36F

$$

ALZ051>060-062100-
INTERIOR SOUTHWEST AND SOUTH CENTRAL ALABAMA

CITY           SKY/WX    TMP DP  RH WIND       PRES   REMARKS
GREENVILLE     NOT AVBL
EVERGREEN      SUNNY     49  29  46 VRB7G16   30.41F
CASTLEBERRY*   NOT AVBL
ATMORE*          N/A     48  21  34 N18       30.42F
DIXIE*           N/A     50  30  46 CALM      30.37F
ANDALUSIA/OPP  SUNNY     54  31  41 NE10G16   30.39
ANDALUSIA*       N/A     46  34  61 NE7       30.38F
FLORALA APT    MOSUNNY   50  31  48 N12G20    30.39F
FLORALA*         N/A     50  32  50 N7        30.34F

$$

FLZ001>006-062100-
WESTERN FLORIDA PANHANDLE

CITY           SKY/WX    TMP DP  RH WIND       PRES   REMARKS
PENSACOLA      PTSUNNY   51  21  30 N14       30.37F
NAS PENSACOLA  PTSUNNY   51  22  31 N14       30.36
MILTON         PTSUNNY   50  23  34 N13G20    30.38
WHTNG S FIELD  PTSUNNY   53  24  32 N14G21    30.38F


CITY           SKY/WX    TMP DP  RH WIND       PRES   REMARKS
WALNUT HILL*   NOT AVBL
JAY*             N/A     48  21  34 N10       30.40F
DUKE FIELD     PTSUNNY   51  29  43 N13       30.35F
CRESTVIEW      MOSUNNY   53  31  42 VRB7G20   30.39F
VALPARAISO     PTSUNNY   54  29  38 N16       30.34F
DESTIN         MOSUNNY   54  32  43 N10       30.35F

$$

MSZ076-079-062100-
INTERIOR SOUTHEAST MISSISSIPPI

CITY           SKY/WX    TMP DP  RH WIND       PRES   REMARKS
LEAKESVILLE*   NOT AVBL
AGRICOLA*      NOT AVBL

$$

MARINE OBSERVATIONS

STATION/POSITION TIME  TEMP    WIND        PRES    WAVE
                       AIR SEA DIR/SP/G            HT/PER
                 (UTC) (F)     (DEG/KT/KT) (MB)    (FT/S)
E DAUPHIN ISLAND NOT AVBL
12 S ORANGE BCH  NOT AVBL

$$

SELECTED LOCATIONS ACROSS THE REGION

CITY           SKY/WX    TMP DP  RH WIND       PRES   REMARKS
NEW ORLEANS    CLOUDY    50  18  28 N15       30.44F
GULFPORT       PTSUNNY   52  14  22 NE12      30.41F
PASCAGOULA AP  PTSUNNY   52  12  20 N16G26    30.39F
PASCAGOULA*    NOT AVBL
HATTIESBURG    SUNNY     52  10  18 N13       30.44F
LAUREL         SUNNY     52  18  25 N13       30.44F
MERIDIAN       SUNNY     49  13  23 N14       30.44
JACKSON        MOSUNNY   46  18  32 N10       30.49F
MONTGOMERY     SUNNY     50  31  48 N8        30.43F
TROY           SUNNY     50  32  50 N9        30.39F
KINSTON*       NOT AVBL
GENEVA*          N/A     50  36  57 NE6       30.39F
ASHFORD*         N/A     46  34  61 NE7       30.38F
DOTHAN         CLOUDY    47  37  68 NE12      30.41F
PANAMA CITY    SUNNY     52  37  56 N14       30.34F

$$



USA.gov is the U.S. government's official web portal to all federal, state and local government web resources and services.